Clines Corner, NM

12:57 AM MDT on June 29, 2017 (GMT -0600)
Clines Corner

Weather History for KCQC - December, 2012

Change the Weather History Date:

Friday, December 7, 2012

  Actual Average (KSAF) Record (KSAF)
Temperature  
Mean Temperature 43 °F -  
Max Temperature 54 °F 54 °F 57 °F (2007)
Min Temperature 28 °F 19 °F 5 °F (2005)
Degree Days  
Heating Degree Days 22    
Moisture  
Dew Point 21 °F    
Average Humidity 45    
Maximum Humidity 67    
Minimum Humidity 30    
Precipitation  
Precipitation 0.00 in - - ()
Sea Level Pressure  
Sea Level Pressure 29.83 in    
Wind  
Wind Speed 15 mph (WNW)    
Max Wind Speed 30 mph    
Max Gust Speed 38 mph    
Visibility 10 miles    
Events      
Averages and records for this station are not official NWS values.
T = Trace of Precipitation, MM = Missing Value Source: NWS Daily Summary

Daily Weather History Graph

Daily Weather History Graph

Search for Another Location

Airport or City:

Trip Planner

Search our weather history database for the weather conditions in past years. The results will help you decide how hot, cold, wet, or windy it might be!

Date:

Astronomy

Dec. 07, 2012 Rise Set
Actual Time 6:57 AM MST 4:50 PM MST
Civil Twilight 6:29 AM MST 5:18 PM MST
Nautical Twilight 5:58 AM MST 5:50 PM MST
Astronomical Twilight 5:27 AM MST 6:21 PM MST
Moon 12:32 AM MST (12/7) 12:38 PM MST (12/7)
Length of Visible Light 10h 49m
Length of Day
9h 53m
Last Quarter, 38% of the Moon is Illuminated
Dec 7
Last Quarter
Dec 13
New
Dec 19
First Quarter
Dec 28
Full
Jan 4
Last Quarter

Hourly Weather History & Observations

Time (MST) Temp. Windchill Dew Point Humidity Pressure Visibility Wind Dir Wind Speed Gust Speed Precip Events Conditions
12:53 AM 42.1 °F 36.1 °F 19.0 °F 40% 29.80 in 10.0 mi WNW 10.4 mph - N/A   Scattered Clouds
1:53 AM 41.0 °F 34.3 °F 19.9 °F 43% 29.79 in 10.0 mi West 11.5 mph - N/A   Mostly Cloudy
2:53 AM 39.9 °F 32.5 °F 19.9 °F 45% 29.79 in 10.0 mi West 12.7 mph - N/A   Clear
3:53 AM 36.0 °F 28.5 °F 18.0 °F 48% 29.81 in 10.0 mi West 10.4 mph - N/A   Clear
4:53 AM 36.0 °F 27.1 °F 19.0 °F 50% 29.83 in 10.0 mi West 13.8 mph - N/A   Clear
5:53 AM 34.0 °F 25.0 °F 19.0 °F 54% 29.86 in 10.0 mi West 12.7 mph - N/A   Clear
6:53 AM 32.0 °F 23.0 °F 19.0 °F 59% 29.89 in 10.0 mi WNW 11.5 mph - N/A   Clear
7:53 AM 37.9 °F 30.0 °F 21.9 °F 53% 29.86 in 10.0 mi West 12.7 mph - N/A   Clear
8:53 AM 44.1 °F 37.1 °F 24.1 °F 45% 29.86 in 10.0 mi WNW 15.0 mph - N/A   Clear
9:53 AM 48.0 °F - 24.1 °F 39% 29.85 in 10.0 mi West 18.4 mph 26.5 mph N/A   Clear
10:53 AM 52.0 °F - 25.0 °F 35% 29.80 in 10.0 mi WNW 21.9 mph 33.4 mph N/A   Clear
11:53 AM 53.1 °F - 21.9 °F 30% 29.77 in 10.0 mi West 29.9 mph 36.8 mph N/A   Clear
12:53 PM 53.1 °F - 25.0 °F 34% 29.75 in 10.0 mi WNW 27.6 mph 38.0 mph N/A   Clear
1:53 PM 54.0 °F - 24.1 °F 31% 29.74 in 10.0 mi WNW 26.5 mph 36.8 mph N/A   Clear
2:53 PM 52.0 °F - 23.0 °F 32% 29.76 in 10.0 mi WNW 24.2 mph 34.5 mph N/A   Clear
3:53 PM 51.1 °F - 23.0 °F 33% 29.80 in 10.0 mi WNW 20.7 mph 29.9 mph N/A   Clear
4:53 PM 46.9 °F - 23.0 °F 39% 29.83 in 10.0 mi WNW 15.0 mph - N/A   Clear
5:53 PM 43.0 °F 36.0 °F 23.0 °F 45% 29.88 in 10.0 mi WNW 13.8 mph - N/A   Clear
6:53 PM 42.1 °F 33.6 °F 19.9 °F 41% 29.89 in 10.0 mi WNW 18.4 mph - N/A   Clear
7:53 PM 39.9 °F 32.5 °F 19.9 °F 45% 29.89 in 10.0 mi WNW 12.7 mph - N/A   Clear
8:53 PM 37.0 °F 28.1 °F 19.9 °F 50% 29.87 in 10.0 mi WNW 15.0 mph - N/A   Clear
9:53 PM 35.1 °F 27.4 °F 19.9 °F 54% 29.87 in 10.0 mi West 10.4 mph - N/A   Clear
10:53 PM 32.0 °F 22.5 °F 19.9 °F 61% 29.87 in 10.0 mi WNW 12.7 mph - N/A   Clear
11:53 PM 28.9 °F 19.2 °F 19.0 °F 67% 29.87 in 10.0 mi West 11.5 mph - N/A   Clear